Zurück zum Katalog

TITAN 3C TRANSTAGE DEB

AktivHEO
NORAD 26050·DEBRIS·🇺🇸 United States

Gestartet Dec 21, 1965 von Cape Canaveral Space Force Station

Loading…

Nächste Überflüge (nächste 24 Stunden)

TLE

AktuellSource: Space-Track

Epoche: Sep 14, 2026, 12:22 UTC

1 26050U 65108AJ  26257.51574162 -.00000066  00000-0  29182-2 0  9993
2 26050  26.2603 194.4905 6606957 326.3438   5.4031  2.69859006268637

Verfolge TITAN 3C TRANSTAGE DEB in Echtzeit mit AllMySat

Download on the App Store